sat.trackr.live / text

‹ back to catalog

STARLINK-2534

NORAD 48311 · 2021-036AM

PAYLOAD ACTIVE UNKNOWN

§ Identity

Operator
Country
US
Launch date
2021-04-29
Launch site
AFETR
Launch vehicle
Mass (kg)
RCS (m²)

Purposes: comms

External: N2YO · Heavens-Above · Gunter

§ Orbital elements

Epoch: 2026-09-20T00:04:22.905696Z

Period
94.01 min
Inclination
53.1609°
Eccentricity
0.0001338
Mean motion
15.31691360 rev/d
Perigee alt
469.8 km
Apogee alt
471.7 km
Semi-major
6,848.9 km
B*
-4.4033e-6
RAAN
264.3618°
Arg perigee
88.5940°
Mean anomaly
271.5215°
Rev number
29,799

§ Raw data

STARLINK-25341 48311U 21036AM  26263.00304289 -.00000502  00000+0 -44033-5 0  99912 48311  53.1609 264.3618 0001338  88.5940 271.5215 15.31691360297996

JSON: /api/v1/satellites/48311 · /tle

For live sub-satellite position, see the globe view (requires WebGL).

§ Visibility from observer

Set your observer location to see the next 7 days of passes ≥ 10°. The values pass through the URL so the page stays shareable.

No JS? Fill the form by hand. The geolocation button needs JavaScript.